GW5858 Weather Reports


Display with metric or nautical units.
time (UTC)temp
F
wind
direction
speed
MPH
gust
MPH
rain 1hr
in
rain 24hr
in
rain mn
in
humidity
%
barometer
mb
20260504010020 51 292 4.0 15.0 0.00 0.00 0.00 62 1009.8
20260504004533 51 352 4.0 14.0 0.00 0.00 0.00 62 1009.6
20260504003011 50 334 3.0 11.0 0.00 0.00 0.00 67 1009.6
20260504001521 49 5 6.0 11.0 0.00 0.00 0.00 67 1009.7
20260504000021 49 308 2.0 8.0 0.00 0.00 0.00 68 1009.8
20260503234521 49 328 2.0 10.0 0.00 0.00 0.00 69 1009.9
20260503233024 49 341 3.0 10.0 0.00 0.00 0.00 70 1009.8
20260503231521 49 9 2.0 10.0 0.00 0.00 0.00 70 1010.0
20260503230018 49 307 2.0 13.0 0.00 0.00 0.00 68 1010.1
20260503224514 50 329 4.0 16.0 0.00 0.00 0.00 67 1010.2
20260503223013 50 301 3.0 14.0 0.00 0.00 0.00 67 1010.3
20260503221507 50 327 5.0 15.0 0.00 0.00 0.00 66 1010.6
20260503220022 50 334 3.0 14.0 0.00 0.00 0.00 65 1010.3
20260503214523 51 5 6.0 14.0 0.00 0.00 0.00 64 1010.2
20260503213023 52 252 6.0 16.0 0.00 0.00 0.00 63 1010.0
20260503211529 52 268 5.0 17.0 0.00 0.00 0.00 62 1010.0
20260503210020 51 318 6.0 18.0 0.00 0.00 0.00 63 1010.1
20260503204512 51 267 6.0 17.0 0.00 0.00 0.00 63 1010.2
20260503203007 52 333 4.0 16.0 0.00 0.00 0.00 62 1010.4
20260503201522 52 306 9.0 21.0 0.00 0.00 0.00 58 1010.6
20260503200023 53 302 8.0 17.0 0.00 0.00 0.00 56 1010.8
20260503194522 54 341 5.0 18.0 0.00 0.00 0.00 55 1011.0
20260503193034 54 262 8.0 20.0 0.00 0.00 0.00 54 1011.1
20260503191517 54 256 10.0 21.0 0.00 0.00 0.00 52 1011.6
20260503190024 54 331 9.0 20.0 0.00 0.00 0.00 53 1011.6
20260503184510 54 256 6.0 17.0 0.00 0.00 0.00 51 1011.6
20260503183022 54 315 8.0 19.0 0.00 0.00 0.00 47 1011.6
20260503181525 56 344 5.0 13.0 0.00 0.00 0.00 42 1011.9
20260503180024 55 274 5.0 15.0 0.00 0.00 0.00 43 1012.2
20260503174521 55 232 3.0 16.0 0.00 0.00 0.00 42 1012.4
20260503173021 54 273 5.0 16.0 0.00 0.00 0.00 47 1012.8
20260503171514 51 330 8.0 14.0 0.00 0.00 0.00 53 1013.1
20260503081531 32 270 0.0 0.0 0.00 0.00 0.00 89 1014.6
20260503071531 34 270 0.0 0.0 0.00 0.00 0.00 87 1014.5
20260503054530 35 270 0.0 0.0 0.00 0.00 0.00 86 1014.9
20260503053020 35 270 0.0 0.0 0.00 0.00 0.00 85 1015.0
20260503051519 35 270 0.0 0.0 0.00 0.00 0.00 85 1015.0
20260503050016 36 270 0.0 0.0 0.00 0.00 0.00 84 1015.1
20260503044515 36 270 0.0 0.0 0.00 0.00 0.00 82 1015.2
20260503043010 37 270 0.0 0.0 0.00 0.00 0.00 81 1015.4
20260503041508 38 270 0.0 0.0 0.00 0.00 0.00 79 1015.3
20260503040005 39 270 0.0 2.0 0.00 0.00 0.00 78 1015.4
20260503034519 40 270 0.0 2.0 0.00 0.00 0.00 76 1015.5
20260503033026 40 270 0.0 3.0 0.00 0.00 0.00 74 1015.5
20260503031517 41 270 2.0 2.0 0.00 0.00 0.00 72 1015.5
20260503030014 41 270 0.0 3.0 0.00 0.00 0.00 70 1015.5
20260503024512 41 273 0.0 2.0 0.00 0.00 0.00 69 1015.6
20260503023007 42 352 0.0 2.0 0.00 0.00 0.00 69 1015.8
20260503021504 42 352 0.0 2.0 0.00 0.00 0.00 67 1015.9
20260503020020 42 17 0.0 3.0 0.00 0.00 0.00 69 1016.0
20260503014522 42 334 0.0 3.0 0.00 0.00 0.00 67 1015.9
20260503013021 42 281 0.0 4.0 0.00 0.00 0.00 68 1015.9
20260503011514 42 278 1.0 5.0 0.00 0.00 0.00 69 1015.9